Regional Weather Roundup
Issued by NWS

Home | Current Version | Previous Version | Graphics & Text | Print | Product List | Glossary Off
Versions: 1 2 3 4 5 6 7 8 9 10 11 12 13 14 15 16 17 18 19 20 21 22 23 24 25 26 27 28 29 30 31 32 33 34 35 36 37 38 39 40 41 42 43 44 45 46 47 48 49 50

000
ASUS43 KTOP 032108
RWRKS

WEATHER ROUNDUP FOR KANSAS
NATIONAL WEATHER SERVICE GOODLAND KS
400 PM CDT TUE MAY 03 2016

NOTE:  "FAIR" INDICATES FEW OR NO CLOUDS BELOW 12,000 FEET WITH NO
SIGNIFICANT WEATHER AND/OR OBSTRUCTIONS TO VISIBILITY.

KSZ001>006-013>018-027>032-041>047-032200-
NORTHWEST KANSAS

CITY           SKY/WX    TMP DP  RH WIND       PRES   REMARKS
GOODLAND       SUNNY     66  36  32 N14G24    30.10F
HAYS           PTSUNNY   66  45  45 W10       30.04F
HILL CITY      MOSUNNY   67  42  40 NW9       30.07F
RUSSELL        MOSUNNY   67  43  41 W12       30.01F
$$

KSZ061>065-074>080-084>089-032200-
SOUTHWEST KANSAS

CITY           SKY/WX    TMP DP  RH WIND       PRES   REMARKS
DODGE CITY     PTSUNNY   65  41  41 N13       30.06S
ELKHART          N/A     66  36  33 N18         N/A
GARDEN CITY    SUNNY     65  39  38 N14G21    30.07F
GREAT BEND     PTSUNNY   68  45  42 NW9       30.03S
LIBERAL        MOSUNNY   68  41  37 N9G21     30.08S
PRATT          PTSUNNY   67  41  38 SW8       30.03F
$$

KSZ066>073-081>083-090>101-032200-
SOUTHEAST KANSAS

CITY           SKY/WX    TMP DP  RH WIND       PRES   REMARKS
CHANUTE        MOSUNNY   68  43  40 W9        30.02F
COFFEYVILLE    PTSUNNY   68  43  40 N3        30.03F
HUTCHINSON     CLOUDY    71  41  33 W10       30.00F
MEDICINE LODGE   N/A     71  37  28 VRB5      30.00F
NEWTON         PTSUNNY   68  43  40 SW10      30.03F
PARSONS        MOSUNNY   69  46  43 VRB5      30.03F
WICHITA INTL   PTSUNNY   69  43  38 SW7       30.01F
WICHITA JABRA  PTSUNNY   70  45  40 SW13G21   30.01F
WICHITA MCCONL MOSUNNY   70  44  38 SW14      30.01F
WINFIELD       MOSUNNY   69  45  41 SW6       30.31R
$$

KSZ007>012-019>026-033>040-048>060-102>105-032200-
NORTHEAST KANSAS

CITY           SKY/WX    TMP DP  RH WIND       PRES   REMARKS
CONCORDIA      PTSUNNY   68  40  35 SW5       30.00F
EMPORIA        PTSUNNY   67  41  38 W3        30.00F
LAWRENCE       SUNNY     69  43  38 VRB5      30.00F
MANHATTAN      MOSUNNY   71  41  33 CALM      29.99F
MARYSVILLE     MOSUNNY   68  43  40 N3        30.00F
OLATHE IND     SUNNY     68  41  37 NW9       30.01F
OLATHE EXE     MOSUNNY   65  38  36 W7        30.01F
SALINA         PTSUNNY   74  44  34 NW8       30.00F
TOPEKA BILLARD PTSUNNY   70  42  36 SW9       29.99F
TOPEKA FORBES  MOSUNNY   69  42  37 W7        30.00F
$$




USA.gov is the U.S. government's official web portal to all federal, state and local government web resources and services.